Regional Weather Roundup
Issued by NWS

Home | Current Version | Previous Version | Graphics & Text | Print | Product List | Glossary On
Versions: 1 2 3 4 5 6 7 8 9 10 11 12 13 14 15 16 17 18 19 20 21 22 23 24 25 26 27 28 29 30 31 32 33 34 35 36 37 38 39 40 41 42 43 44 45 46 47 48 49 50
000
ASUS43 KIND 301959
RWRIN

WEATHER ROUNDUP FOR INDIANA
NATIONAL WEATHER SERVICE INDIANAPOLIS IN
400 PM EDT SAT JUL 30 2016

NOTE: "FAIR" INDICATES FEW OR NO CLOUDS BELOW 12,000 FEET WITH NO
SIGNIFICANT WEATHER AND/OR OBSTRUCTIONS TO VISIBILITY.

* - STATION DOES NOT REPORT WEATHER SUCH AS PRECIPITATION OR FOG.

+ - STATION NOT QUALITY CONTROLLED BY THE NATIONAL WEATHER SERVICE.
    USE DATA WITH CAUTION...ESPECIALLY DEWPOINT AND RELATIVE
    HUMIDITY OBSERVATIONS.

INZ001>003-010>013-019-020-302100-
NORTHWEST INDIANA

CITY           SKY/WX    TMP DP  RH WIND       PRES   REMARKS
GARY /AIRPORT/ MOSUNNY   77  70  78 NE9       29.98S
KNOX *+        SUNNY     79  59  50 N5        29.95F
MONTICELLO +   PTSUNNY   80  68  66 NW7       29.94F

$$

LMZ046-743>745-302100-
SOUTHERN LAKE MICHIGAN

STATION/POSITION TIME  TEMP    WIND        PRES    WAVE
                       AIR SEA DIR/SP/G            HT
                 (UTC) (F)     (DEG/KT/KT) (MB)    (FT)
BURNS HARBOR     1910   71      30/ 10/ 12 1015.6S
MICHIGAN CITY    1900   71     340/ 13/ 13   N/A
5NW MICH CITY    1900   72 72   10/ 10/ 12   N/A     2

$$

INZ004-005-014>016-021>024-302100-
NORTH CENTRAL INDIANA

CITY           SKY/WX    TMP DP  RH WIND       PRES   REMARKS
ELKHART        PTSUNNY   77  66  69 NE5       29.97F
GOSHEN         PTSUNNY   78  64  61 CALM      29.96F
SOUTH BEND     PTSUNNY   78  67  68 N7        29.96F

$$

INZ006>009-017-018-025>027-302100-
NORTHEAST INDIANA

CITY           SKY/WX    TMP DP  RH WIND       PRES   REMARKS
ANGOLA *+        N/A     79  70  73 CALM      29.96F
FORT WAYNE     CLOUDY    80  67  64 NW5       29.95F

$$

INZ028-029-035-036-043>045-051>053-302100-
WEST CENTRAL INDIANA

CITY           SKY/WX    TMP DP  RH WIND       PRES   REMARKS
CRAWFORDSVL +  MOSUNNY   78  66  66 W6        29.96S
LAFAYETTE      PTSUNNY   80  71  74 NW6       29.94F
TERRE HAUTE    PTSUNNY   81  65  58 W8        29.96F

$$

INZ030>032-037>040-046>048-054>057-064-065-302100-
CENTRAL INDIANA

CITY           SKY/WX    TMP DP  RH WIND       PRES   REMARKS
COLUMBUS       MOSUNNY   82  70  65 NW7       29.95F
INDIANAPOLIS   MOSUNNY   84  63  49 W12       29.95F
-EAGLE CREEK   MOSUNNY   86  64  47 W12G17    29.94F
KOKOMO *+      SUNNY     82  66  57 W8        29.94F
SHELBYVILLE    MOSUNNY   86  65  49 W6        29.94F

$$

INZ033-034-041-042-049-050-058-059-302100-
EAST CENTRAL INDIANA

CITY           SKY/WX    TMP DP  RH WIND       PRES   REMARKS
MUNCIE         MOSUNNY   83  68  60 N8        29.95F

$$

INZ060-061-067>069-081>083-085>088-302100-
SOUTHWEST INDIANA

CITY           SKY/WX    TMP DP  RH WIND       PRES   REMARKS
EVANSVILLE     MOSUNNY   84  69  60 NW7       29.96F
HUNTINGBURG *+ PTSUNNY   81  72  74 N3        29.96S

$$

INZ062-063-066-070>080-084-089>092-302100-
SOUTH CENTRAL AND SOUTHEAST INDIANA

CITY           SKY/WX    TMP DP  RH WIND       PRES   REMARKS
BLOOMINGTON    MOSUNNY   82  66  58 W7        29.97F
MADISON *+     CLOUDY    82  70  65 S5        29.98F
SEYMOUR +      MOSUNNY   88  68  51 W7        29.95F

$$





USA.gov is the U.S. government's official web portal to all federal, state and local government web resources and services.